Wetterdaten: aktuell Sonntag, 10.05.2026 18:45
Datum Zeit Temp. A. Feuchte A. Luftdruck Regen Wind Richtung Richtung Taupunkt Windchill
10.05.2026 18:45 24,2 °C 26 % 998,7 hPa 0,0 l/m² 5,8 km/h (2 Bft) N±22.5° 360 ° 3,5 °C 24,2 °C
10.05.2026 18:43 24,0 °C 25 % 998,7 hPa 0,0 l/m² 7,5 km/h (2 Bft) N-NW±22.5° 340 ° 2,8 °C 23,7 °C
10.05.2026 18:41 24,1 °C 25 % 998,7 hPa 0,0 l/m² 7,5 km/h (2 Bft) N-NW±22.5° 340 ° 2,8 °C 23,8 °C
10.05.2026 18:39 24,1 °C 25 % 998,7 hPa 0,0 l/m² 9,0 km/h (2 Bft) N±22.5° 355 ° 2,8 °C 23,4 °C
10.05.2026 18:37 24,0 °C 26 % 998,7 hPa 0,0 l/m² 5,0 km/h (1 Bft) N-NW±22.5° 345 ° 3,3 °C 24,0 °C
10.05.2026 18:35 24,0 °C 26 % 998,7 hPa 0,0 l/m² 5,0 km/h (1 Bft) N-NW±22.5° 345 ° 3,3 °C 24,0 °C
10.05.2026 18:33 24,0 °C 26 % 998,7 hPa 0,0 l/m² 9,8 km/h (2 Bft) N 355 ° 3,3 °C 23,1 °C
10.05.2026 18:31 24,0 °C 27 % 998,7 hPa 0,0 l/m² 1,3 km/h (1 Bft) N 360 ° 3,8 °C 24,0 °C
10.05.2026 18:29 24,0 °C 27 % 998,7 hPa 0,0 l/m² 1,3 km/h (1 Bft) N 360 ° 3,8 °C 24,0 °C
10.05.2026 18:27 24,0 °C 27 % 998,7 hPa 0,0 l/m² 1,3 km/h (1 Bft) N 360 ° 3,8 °C 24,0 °C
10.05.2026 18:24 23,9 °C 26 % 998,8 hPa 0,0 l/m² 4,1 km/h (1 Bft) N 350 ° 3,2 °C 23,9 °C
10.05.2026 18:22 23,9 °C 26 % 998,8 hPa 0,0 l/m² 4,1 km/h (1 Bft) N 350 ° 3,2 °C 23,9 °C
10.05.2026 18:21 23,9 °C 26 % 998,8 hPa 0,0 l/m² 4,1 km/h (1 Bft) N 350 ° 3,2 °C 23,9 °C
10.05.2026 18:19 23,8 °C 26 % 998,8 hPa 0,0 l/m² 6,7 km/h (2 Bft) N±22.5° 360 ° 3,1 °C 23,7 °C
10.05.2026 18:17 23,8 °C 27 % 998,8 hPa 0,0 l/m² 7,8 km/h (2 Bft) N±22.5° 5 ° 3,7 °C 23,4 °C
10.05.2026 18:15 23,8 °C 27 % 998,8 hPa 0,0 l/m² 9,0 km/h (2 Bft) N±22.5° 350 ° 3,7 °C 23,1 °C
10.05.2026 18:13 24,0 °C 27 % 998,7 hPa 0,0 l/m² 9,0 km/h (2 Bft) N±22.5° 350 ° 3,8 °C 23,3 °C
10.05.2026 18:11 24,0 °C 27 % 998,7 hPa 0,0 l/m² 1,8 km/h (1 Bft) N±22.5° 360 ° 3,8 °C 24,0 °C
10.05.2026 18:09 24,0 °C 27 % 998,7 hPa 0,0 l/m² 6,2 km/h (2 Bft) N±22.5° 360 ° 3,8 °C 24,0 °C
10.05.2026 18:07 24,0 °C 27 % 998,7 hPa 0,0 l/m² 6,7 km/h (2 Bft) O-NO±67.5° 60 ° 3,8 °C 23,9 °C
10.05.2026 18:05 24,1 °C 26 % 998,7 hPa 0,0 l/m² 6,7 km/h (2 Bft) O-NO±67.5° 60 ° 3,4 °C 24,0 °C
10.05.2026 18:03 24,2 °C 25 % 998,7 hPa 0,0 l/m² 8,4 km/h (2 Bft) O-SO±45° 120 ° 2,9 °C 23,7 °C
10.05.2026 18:01 24,2 °C 25 % 998,7 hPa 0,0 l/m² 3,0 km/h (1 Bft) N 360 ° 2,9 °C 24,2 °C
10.05.2026 17:59 24,2 °C 25 % 998,7 hPa 0,0 l/m² 3,0 km/h (1 Bft) N 360 ° 2,9 °C 24,2 °C
10.05.2026 17:57 24,2 °C 24 % 998,7 hPa 0,0 l/m² 3,0 km/h (1 Bft) N 360 ° 2,4 °C 24,2 °C
10.05.2026 17:55 24,2 °C 24 % 998,7 hPa 0,0 l/m² 1,3 km/h (1 Bft) N 360 ° 2,4 °C 24,2 °C
10.05.2026 17:53 24,2 °C 22 % 998,7 hPa 0,0 l/m² 7,3 km/h (2 Bft) N±22.5° 5 ° 1,1 °C 23,9 °C
10.05.2026 17:51 24,3 °C 23 % 998,7 hPa 0,0 l/m² 7,3 km/h (2 Bft) N±22.5° 5 ° 1,8 °C 24,1 °C
10.05.2026 17:49 24,3 °C 23 % 998,7 hPa 0,0 l/m² 3,4 km/h (1 Bft) N 5 ° 1,8 °C 24,3 °C
10.05.2026 17:47 24,2 °C 23 % 998,7 hPa 0,0 l/m² 7,3 km/h (2 Bft) N±45° 355 ° 1,8 °C 23,9 °C
10.05.2026 17:44 24,3 °C 24 % 998,7 hPa 0,0 l/m² 6,5 km/h (2 Bft) N±45° 10 ° 2,4 °C 24,3 °C
10.05.2026 17:42 24,3 °C 24 % 998,7 hPa 0,0 l/m² 6,5 km/h (2 Bft) N±45° 10 ° 2,4 °C 24,3 °C
10.05.2026 17:40 24,3 °C 26 % 998,7 hPa 0,0 l/m² 7,3 km/h (2 Bft) N-NW±22.5° 345 ° 3,6 °C 24,1 °C
10.05.2026 17:39 24,3 °C 26 % 998,7 hPa 0,0 l/m² 5,6 km/h (1 Bft) N±45° 10 ° 3,6 °C 24,3 °C
10.05.2026 17:37 24,3 °C 26 % 998,7 hPa 0,0 l/m² 5,6 km/h (1 Bft) N±45° 10 ° 3,6 °C 24,3 °C
10.05.2026 17:35 24,3 °C 26 % 998,7 hPa 0,0 l/m² 1,0 km/h (0 Bft) N-NW 345 ° 3,6 °C 24,3 °C
10.05.2026 17:33 24,4 °C 25 % 999,7 hPa 0,0 l/m² 7,9 km/h (2 Bft) N±22.5° 355 ° 3,1 °C 24,0 °C
10.05.2026 17:31 24,4 °C 25 % 999,7 hPa 0,0 l/m² 1,6 km/h (1 Bft) N-NO±22.5° 15 ° 3,1 °C 24,4 °C
10.05.2026 17:29 24,5 °C 25 % 999,7 hPa 0,0 l/m² 1,6 km/h (1 Bft) N-NO±22.5° 15 ° 3,2 °C 24,5 °C
10.05.2026 17:27 24,5 °C 25 % 999,7 hPa 0,0 l/m² 1,9 km/h (1 Bft) N±22.5° 360 ° 3,2 °C 24,5 °C
10.05.2026 17:25 24,5 °C 25 % 999,7 hPa 0,0 l/m² 3,9 km/h (1 Bft) N-NW±22.5° 345 ° 3,2 °C 24,5 °C
_ Min-Zeit 06:17 13:53 17:35 - 00:01 - - 16:58 06:17
Minimum _ 11,5 °C 20 % 998,7 hPa - 0,0 km/h (0 Bft) - - 0,2 °C 11,5 °C
_ Max-Zeit 15:05 06:31 00:39 00:01 16:37 - - 07:47 15:05
Maximum _ 26,6 °C 74 % 1008,2 hPa 0,0 l/m² 16,1 km/h
N-NW (3 Bft)
- - 7,4 °C 26,6 °C
Durchschnitt _ 18,3 °C 47 % 1004,2 hPa #0,0 l/m² 2,3 km/h (1 Bft) N - 5,1 °C 18,2 °C